| time (UTC) | temp F | wind direction | speed knots | gust knots | rain 1hr in | rain 24hr in | rain mn in | humidity % | barometer mb |
| 20260505022640 | 55 | 112 | 0.9 | 0.9 | 0.00 | 0.00 | 0.00 | 71 | 1014.4 |
| 20260505021640 | 56 | 112 | 1.7 | 1.7 | 0.00 | 0.00 | 0.00 | 71 | 1014.4 |
| 20260505020639 | 56 | 112 | 0.0 | 0.0 | 0.00 | 0.00 | 0.00 | 69 | 1014.4 |
| 20260505015640 | 56 | 112 | 1.7 | 1.7 | 0.00 | 0.00 | 0.00 | 69 | 1014.5 |
| 20260505014640 | 57 | 112 | 0.0 | 0.0 | 0.00 | 0.00 | 0.00 | 68 | 1014.5 |
| 20260505013640 | 57 | 112 | 1.7 | 1.7 | 0.00 | 0.00 | 0.00 | 68 | 1014.6 |
| 20260505012641 | 57 | 112 | 1.7 | 1.7 | 0.00 | 0.00 | 0.00 | 67 | 1014.6 |
| 20260505011640 | 57 | 112 | 0.0 | 0.0 | 0.00 | 0.00 | 0.00 | 67 | 1014.6 |
| 20260505010640 | 57 | 112 | 3.5 | 3.5 | 0.00 | 0.00 | 0.00 | 67 | 1014.8 |
| 20260505005641 | 57 | 112 | 0.0 | 0.0 | 0.00 | 0.00 | 0.00 | 69 | 1014.9 |
| 20260505004641 | 58 | 90 | 3.5 | 3.5 | 0.00 | 0.00 | 0.00 | 67 | 1014.9 |
| 20260505003640 | 58 | 90 | 4.3 | 4.3 | 0.00 | 0.00 | 0.00 | 67 | 1015.0 |
| 20260505002640 | 58 | 90 | 1.7 | 1.7 | 0.00 | 0.00 | 0.00 | 67 | 1014.9 |
| 20260505000641 | 60 | 90 | 0.9 | 0.9 | 0.00 | 0.00 | 0.00 | 60 | 1015.0 |
| 20260504234639 | 59 | 158 | 1.7 | 1.7 | 0.00 | 0.00 | 0.00 | 62 | 1015.1 |
| 20260504233640 | 60 | 112 | 1.7 | 1.7 | 0.00 | 0.00 | 0.00 | 62 | 1015.2 |
| 20260504231640 | 60 | 158 | 1.7 | 1.7 | 0.00 | 0.00 | 0.00 | 61 | 1015.1 |
| 20260504230641 | 60 | 45 | 0.9 | 0.9 | 0.00 | 0.00 | 0.00 | 62 | 1015.0 |
| 20260504224640 | 61 | 270 | 5.2 | 5.2 | 0.00 | 0.00 | 0.00 | 61 | 1014.9 |
| 20260504222640 | 61 | 248 | 5.2 | 5.2 | 0.00 | 0.00 | 0.00 | 58 | 1014.8 |
| 20260504221641 | 61 | 292 | 11.3 | 11.3 | 0.00 | 0.00 | 0.00 | 57 | 1014.9 |
| 20260504220640 | 61 | 270 | 8.7 | 8.7 | 0.00 | 0.00 | 0.00 | 58 | 1014.9 |
| 20260504215641 | 62 | 270 | 8.7 | 8.7 | 0.00 | 0.00 | 0.00 | 55 | 1014.9 |
| 20260504214640 | 63 | 270 | 11.3 | 11.3 | 0.00 | 0.00 | 0.00 | 52 | 1014.8 |
| 20260504213641 | 64 | 248 | 14.8 | 14.8 | 0.00 | 0.00 | 0.00 | 48 | 1014.9 |
| 20260504212640 | 64 | 225 | 6.1 | 6.1 | 0.00 | 0.00 | 0.00 | 41 | 1014.9 |
| 20260504210641 | 65 | 248 | 7.0 | 7.0 | 0.00 | 0.00 | 0.00 | 40 | 1014.9 |
| 20260504205640 | 65 | 248 | 7.8 | 7.8 | 0.00 | 0.00 | 0.00 | 40 | 1014.9 |
| 20260504204641 | 65 | 292 | 7.0 | 7.0 | 0.00 | 0.00 | 0.00 | 41 | 1014.7 |
| 20260504203640 | 65 | 270 | 6.1 | 6.1 | 0.00 | 0.00 | 0.00 | 41 | 1014.6 |
| 20260504202640 | 65 | 248 | 7.0 | 7.0 | 0.00 | 0.00 | 0.00 | 40 | 1014.5 |
| 20260504201641 | 65 | 248 | 7.8 | 7.8 | 0.00 | 0.00 | 0.00 | 40 | 1014.4 |
| 20260504200641 | 65 | 248 | 8.7 | 8.7 | 0.00 | 0.00 | 0.00 | 41 | 1014.2 |
| 20260504195639 | 65 | 248 | 8.7 | 8.7 | 0.00 | 0.00 | 0.00 | 41 | 1014.1 |
| 20260504194640 | 65 | 248 | 5.2 | 5.2 | 0.00 | 0.00 | 0.00 | 42 | 1014.0 |
| 20260504193642 | 65 | 270 | 5.2 | 5.2 | 0.00 | 0.00 | 0.00 | 42 | 1014.0 |
| 20260504192641 | 65 | 270 | 6.1 | 6.1 | 0.00 | 0.00 | 0.00 | 42 | 1013.9 |
| 20260504190640 | 66 | 225 | 5.2 | 5.2 | 0.00 | 0.00 | 0.00 | 42 | 1013.7 |
| 20260504185639 | 67 | 270 | 6.1 | 6.1 | 0.00 | 0.00 | 0.00 | 41 | 1013.6 |
| 20260504184640 | 68 | 0 | 6.1 | 6.1 | 0.00 | 0.00 | 0.00 | 42 | 1013.7 |
| 20260504183641 | 68 | 248 | 5.2 | 5.2 | 0.00 | 0.00 | 0.00 | 41 | 1013.6 |
| 20260504182640 | 68 | 270 | 7.8 | 7.8 | 0.00 | 0.00 | 0.00 | 41 | 1013.5 |
| 20260504181640 | 69 | 315 | 9.6 | 9.6 | 0.00 | 0.00 | 0.00 | 41 | 1013.4 |
| 20260504175641 | 68 | 270 | 5.2 | 5.2 | 0.00 | 0.00 | 0.00 | 42 | 1013.4 |
| 20260504173641 | 70 | 270 | 8.7 | 8.7 | 0.00 | 0.00 | 0.00 | 38 | 1013.3 |
| 20260504171640 | 71 | 270 | 7.0 | 7.0 | 0.00 | 0.00 | 0.00 | 37 | 1013.4 |
| 20260504170641 | 70 | 248 | 5.2 | 5.2 | 0.00 | 0.00 | 0.00 | 38 | 1013.3 |
| 20260504150640 | 70 | 292 | 5.2 | 5.2 | 0.00 | 0.00 | 0.00 | 42 | 1013.4 |
| 20260504140641 | 69 | 270 | 9.6 | 9.6 | 0.00 | 0.00 | 0.00 | 45 | 1013.8 |
| 20260504130640 | 67 | 248 | 15.6 | 15.6 | 0.00 | 0.00 | 0.00 | 47 | 1014.0 |
| 20260504110640 | 64 | 270 | 7.8 | 7.8 | 0.00 | 0.00 | 0.00 | 55 | 1015.0 |
| 20260504080641 | 58 | 112 | 2.6 | 2.6 | 0.00 | 0.00 | 0.00 | 73 | 1015.1 |
| 20260504050641 | 55 | 112 | 4.3 | 4.3 | 0.00 | 0.00 | 0.00 | 79 | 1014.0 |
| 20260504045641 | 56 | 112 | 4.3 | 4.3 | 0.00 | 0.00 | 0.00 | 79 | 1013.9 |
| 20260504043641 | 57 | 270 | 0.9 | 0.9 | 0.00 | 0.00 | 0.00 | 76 | 1013.8 |
| 20260504042640 | 57 | 315 | 3.5 | 3.5 | 0.00 | 0.00 | 0.00 | 75 | 1013.8 |
| 20260504041640 | 57 | 270 | 4.3 | 4.3 | 0.00 | 0.00 | 0.00 | 74 | 1013.7 |
| 20260504040641 | 57 | 270 | 4.3 | 4.3 | 0.00 | 0.00 | 0.00 | 74 | 1013.7 |
| 20260504035641 | 56 | 270 | 4.3 | 4.3 | 0.00 | 0.00 | 0.00 | 75 | 1013.8 |
| 20260504034641 | 57 | 90 | 0.0 | 0.0 | 0.00 | 0.00 | 0.00 | 76 | 1013.8 |
| 20260504033640 | 57 | 90 | 1.7 | 1.7 | 0.00 | 0.00 | 0.00 | 75 | 1014.0 |
| 20260504032640 | 57 | 90 | 1.7 | 1.7 | 0.00 | 0.00 | 0.00 | 75 | 1013.9 |
| 20260504031641 | 57 | 90 | 1.7 | 1.7 | 0.00 | 0.00 | 0.00 | 75 | 1014.0 |
| 20260504030640 | 57 | 90 | 0.0 | 0.0 | 0.00 | 0.00 | 0.00 | 75 | 1014.0 |
| 20260504025640 | 58 | 90 | 1.7 | 1.7 | 0.00 | 0.00 | 0.00 | 74 | 1014.1 |
| 20260504023640 | 58 | 90 | 1.7 | 1.7 | 0.00 | 0.00 | 0.00 | 73 | 1014.0 |